Regional Weather Roundup
Issued by NWS

Home | Current Version | Previous Version | Text Only | Print | Product List | Glossary Off
Versions: 1 2 3 4 5 6 7 8 9 10 11 12 13 14 15 16 17 18 19 20 21 22 23 24 25 26 27 28 29 30 31 32 33 34 35 36 37 38 39 40 41 42 43 44 45 46 47 48 49 50

000
ASUS43 KMPX 240610
RWRMN
WEATHER ROUNDUP FOR MINNESOTA
NATIONAL WEATHER SERVICE TWIN CITIES/CHANHASSEN MN
100 AM CDT WED MAY 24 2017


NOTE: "FAIR" INDICATES FEW OR NO CLOUDS BELOW 12,000 FEET WITH NO
SIGNIFICANT WEATHER AND/OR OBSTRUCTIONS TO VISIBILITY. N/A MEANS
CURRENT SKY AND/OR WEATHER CONDITIONS ARE NOT AVAILABLE.

MNZ060>063-068>070-240700-
   Twin Cities Metro

CITY           SKY/WX    TMP DP  RH WIND       PRES   REMARKS
TWIN CITIES    PTCLDY    51  44  77 N10       29.81F
6HR MIN TEMP:  51; 6HR MAX TEMP:  59;

ST PAUL        PTCLDY    50  45  83 N9        29.81F
CRYSTAL        PTCLDY    48  42  80 N8        29.81F
BLAINE         CLEAR     50  45  81 MISG      29.82F
LAKEVILLE      CLOUDY    50  45  81 N7        29.79F
EDEN PRAIRIE   CLEAR     51  44  77 N9        29.79F
6HR MIN TEMP:  51; 6HR MAX TEMP:  60; 6HR PCP: TRACE;

SOUTH ST PAUL  CLEAR     51  44  77 N7        29.80S
LAKE ELMO      FAIR      46  45  93 N6        29.82S
$$
MNZ001>005-007-008-013>017-022>024-027-028-240700-
   Northwest Minnesota

CITY           SKY/WX    TMP DP  RH WIND       PRES   REMARKS
BEMIDJI        CLEAR     34  33  98 NW5       29.90F WCI  30
HALLOCK        CLOUDY    45  39  81 S3        29.91F
ROSEAU         CLEAR     43  39  87 CALM      29.92S
WARROAD        CLEAR     43  39  87 CALM      29.92F
CROOKSTON      CLEAR     45  43  93 CALM      29.91F
FOSSTON        CLEAR     39  37  93 CALM      29.91F
DETROIT LAKES  CLEAR     46  43  87 NE6       29.90F
MOORHEAD       CLEAR     45  41  87 NE7       29.91F
PARK RAPIDS    CLEAR     48  41  76 NE5       29.88F
MAHNOMEN       FAIR      40  39  95 NE3       29.90F
$$
MNZ006-009>011-018-025>026-240700-
   North Central Minnesota

CITY           SKY/WX    TMP DP  RH WIND       PRES   REMARKS
BAUDETTE       CLEAR     37  36  96 CALM      29.91F FOG
FLAG ISLAND    CLEAR     50  46  87 CALM      29.90F
INTL FALLS     CLEAR     36  33  89 NW3       29.90F
6HR MIN TEMP:  34; 6HR MAX TEMP:  56;

WASKISH        FOG       37  36  93 CALM      29.91F VSB 3/4
BIG FORK       CLEAR     36  34  93 CALM      29.90F
LONGVILLE      CLOUDY    48  45  87 N3        29.88F
GRAND RAPIDS   CLOUDY    48  43  82 N6        29.90F
CRANE LAKE     CLEAR     34  34 100 CALM      29.92S
ORR            CLEAR     39  37  93 CALM      29.87F
COOK           CLEAR     39  37  93 CALM      29.90S
WALKER         FAIR      45  41  88 N3        29.89F
$$
MNZ012-019>021-037-240700-
   Northeast Minnesota

CITY           SKY/WX    TMP DP  RH WIND       PRES   REMARKS
DULUTH         CLOUDY    47  45  93 NE5       29.86F
6HR MIN TEMP:  47; 6HR MAX TEMP:  49; 6HR PCP:  0.01;

ELY            PTCLDY    46  39  76 CALM      29.88F
HIBBING        CLOUDY    48  42  80 N3        29.88S
EVELETH        PTCLDY    47  39  73 CALM      29.89F
DULUTH HARBOR  CLOUDY    46  45  93 CALM      29.88F
TWO HARBORS    CLOUDY    50  45  81 CALM      29.85F
SILVER BAY     DRIZZLE   46  46 100 N5        29.85F
GRAND MARAIS     N/A     49  42  77 NE5       29.87F
G MARAIS ARPRT MOCLDY    39  34  81 N6        29.88F
$$
MNZ029>031-032-039>041-046>048-054>057-064-240700-
   West Central Minnesota

CITY           SKY/WX    TMP DP  RH WIND       PRES   REMARKS
FERGUS FALLS   CLEAR     45  45 100 CALM      29.88F
WHEATON        CLEAR     43  41  93 CALM      29.90F
MORRIS         CLEAR     45  45 100 N5        29.86F
ALEXANDRIA     CLOUDY    49  45  86 NE7       29.88F
ELBOW LAKE     FAIR      46  44  93 N5        29.88F
WADENA         CLOUDY    48  43  81 NE6       29.87F
GLENWOOD       CLEAR     48  46  93 NE10      29.87F
BENSON         CLEAR     46  45  93 CALM      29.88F
ORTONVILLE     CLEAR     46  43  87 N7        29.88F
MADISON        CLEAR     50  48  93 N7        29.87F
WILLMAR        FAIR      48  46  93 N8        29.87S
$$
MNZ033>034-036-042>043-049>051-058-059-240700-
   Central Minnesota

CITY           SKY/WX    TMP DP  RH WIND       PRES   REMARKS
ST CLOUD       CLOUDY    50  46  86 NE7       29.85F
6HR MIN TEMP:  50; 6HR MAX TEMP:  57;

SAUK CENTRE    CLOUDY    48  46  91 N6        29.87F
PAYNESVILLE    CLOUDY    50  50 100 N8        29.86F
AITKIN         CLOUDY    46  45  93 CALM      29.87F
PINE RIVER     CLOUDY    50  45  81 N5        29.91F
BRAINERD       CLOUDY    49  48  97 CALM      29.88F
STAPLES        CLOUDY    48  45  87 N3        29.88F
LONG PRAIRIE   CLOUDY    48  46  93 N3        29.88F
LITTLE FALLS   CLOUDY    50  46  87 CALM      29.87F
LITCHFIELD     PTCLDY    52  48  87 N6        29.84F
BUFFALO        CLEAR     48  43  82 N8        29.84F
MAPLE LAKE     PTCLDY    50  46  84 NE9       29.85F
HUTCHINSON     CLOUDY    50  46  87 N5        29.84F
$$
MNZ037-044-045-052-053-240700-
   East Central Minnesota

CITY           SKY/WX    TMP DP  RH WIND       PRES   REMARKS
PRINCETON      CLOUDY    50  45  81 N8        29.85F
MORA           CLOUDY    45  41  87 CALM      29.87F
CAMBRIDGE      CLOUDY    52  43  71 N3        29.83F
RUSH CITY      CLOUDY    48  44  88 N8        29.85F
MOOSE LAKE     MOCLDY    46  43  87 N3        29.85F
HINCKLEY       CLOUDY    46  45  93 N7        29.85F
CLOQUET        MOCLDY    45  43  93 CALM      29.87F
MCGREGOR       CLOUDY    46  46 100 CALM      29.88F
$$
MNZ071>073-080-081-089-090-097-098-240700-
   Southwest Minnesota

CITY           SKY/WX    TMP DP  RH WIND       PRES   REMARKS
MONTEVIDEO     CLEAR     46  46 100 N7        29.86F
CANBY          CLEAR     47  46  94 CALM      29.88F
MARSHALL       PTCLDY    48  46  93 N7        29.86F
REDWOOD FALLS  MOCLDY    50  44  80 N6        29.83F
OLIVIA         CLOUDY    50  46  87 N7        29.83F
PIPESTONE      MOCLDY    48  45  87 N6        29.85F
WINDOM         CLEAR     48  46  93 N12       29.82F
WORTHINGTON    PTCLDY    45  44  97 NW9       29.83F
JACKSON        PTCLDY    46  45  93 CALM      29.81F
TRACY          CLOUDY    50  48  92 NW7       29.85F
SLAYTON        CLEAR     46  45  93 N8        29.85S
$$
MNZ065>067-074>077-082>085-091>093-240700-
   South Central Minnesota

CITY           SKY/WX    TMP DP  RH WIND       PRES   REMARKS
MANKATO        CLOUDY    51  47  86 N12       29.80
NEW ULM        CLEAR     48  45  87 N5        29.82S
ST JAMES       CLOUDY    52  46  82 N10       29.81F
FAIRMONT       CLOUDY    51  47  86 N13       29.79F
GLENCOE        CLEAR     50  47  92 N7        29.82F
FARIBAULT      MOCLDY    52  45  76 N7        29.79S
OWATONNA       MOCLDY    52  45  76 N9G16     29.77F
WASECA         MOCLDY    50  45  81 N6        29.79S
ALBERT LEA     CLOUDY    52  52 100 N10       29.76F
$$
MNZ078>079-086>088-094>096-240700-
   Southeast Minnesota

CITY           SKY/WX    TMP DP  RH WIND       PRES   REMARKS
ROCHESTER      CLOUDY    50  48  93 N14       29.75F
6HR MIN TEMP:  50; 6HR MAX TEMP:  51; 6HR PCP: TRACE;

RED WING       CLOUDY    54  43  66 N6        29.77F
STANTON        MOCLDY    51  46  80 N13       29.77F
DODGE CENTER   CLOUDY    48  46  93 N10       29.76F
WINONA         CLOUDY    54  46  76 NE5       29.74F
AUSTIN         CLOUDY    52  46  82 N7        29.74F
PRESTON        LGT RAIN  50  46  87 NE6       29.74S
$$
ABBREVIATIONS USED IN REMARKS
   TC - TEMPERATURES IN CELSIUS
  WCI - WIND CHILL INDEX
   HX - HEAT INDEX
  VSB - VISIBILITY
$$




USA.gov is the U.S. government's official web portal to all federal, state and local government web resources and services.